www.pogodaiklimat.ru

Погода и климат >> Архив погоды >> Казахстан >> Аксай


ПОГОДА в Аксае

  • Прогноз погоды в Аксае
  • Монитор погоды в Аксае

АРХИВ ПОГОДЫ в Аксае

Время (UTC), дата Ветер
(напр.,м/с)
 
Видим.   Явления Облачность Т
(С)
Тd
(С)
f
(%)
Тe
(С)
Тes
(С)
Комфортность P
(гПа)
Po
(гПа)
Тmin
(С)
Tmax
(С)
R
(мм)
R24
(мм)
S
(см)
03 12.09 штиль 0 20 км ясно +8.6 +5.2 79 +8 +8 1032.2 1024.4
06 12.09 штиль 0 20 км ясно +20.7 +5.7 38 +21 +30 комфорт 1032.1 1024.6 +7.5
09 12.09 СВ 3 20 км 4/4 600 м
[Cu med, cong]
+23.3 +5.8 32 +24 +28 комфорт 1030.6 1023.2
12 12.09 С 2 20 км 3/3 600 м
[Cu med, cong]
+24.7 +4.9 28 +24 +27 комфорт 1029.0 1021.6
15 12.09 штиль 0 20 км ясно +20.9 +7.4 42 +22 +22 комфорт 1028.4 1020.9 +25.8
18 12.09 штиль 0 н/о ясно +13.1 +6.1 62 +13 +13 1028.6 1020.9 +25.8
21 12.09 штиль 0 н/о ясно +8.8 +4.7 75 +8 +8 1028.2 1020.4
00 13.09 штиль 0 н/о дымка ясно +7.6 +5.3 85 +7 +7 1027.8 1020.0
03 13.09 штиль 0 4000 м дымка ясно +6.3 +3.7 83 +5 +6 1027.8 1020.0
06 13.09 штиль 0 20 км ясно +18.9 +6.1 43 +19 +28 1027.2 1019.7 +5.1
09 13.09 СЗ 2 20 км 1/1 600 м
[Cu med, cong]
+24.7 +4.3 27 +24 +32 комфорт 1025.4 1018.1
12 13.09 СЗ 3 20 км 3/3 600 м
[Cu med, cong]
+25.4 +3.0 23 +24 +26 комфорт 1023.6 1016.3
15 13.09 штиль 0 20 км 1/1 600 м
[Sc]
+21.1 +9.0 46 +22 +22 комфорт 1022.8 1015.4 +27.2
18 13.09 штиль 0 н/о 4/4 600 м
[Sc]
+14.3 +5.9 57 +14 +14 1023.1 1015.5 +27.2
21 13.09 штиль 0 н/о 1/1 600 м
[Sc]
+10.9 +4.4 64 +11 +11 1022.8 1015.1
00 14.09 В 1 н/о 1/1 600 м
[Sc]
+9.5 +3.5 66 +9 +9 1022.4 1014.7
03 14.09 штиль 0 20 км 1/1 600 м
[Sc]
+9.0 +2.8 65 +9 +9 1022.0 1014.3
06 14.09 штиль 0 20 км ясно +21.9 +4.5 32 +22 +30 комфорт 1021.2 1013.8 +8.1
09 14.09 З 4 20 км 6/6 600 м
[Cb calv]
+25.7 +1.1 20 +24 +27 комфорт 1019.6 1012.3
12 14.09 ЮЗ 3 20 км 8/8 600 м
[Cb calv]
+27.4 +0.1 17 +25 +26 комфорт 1018.0 1010.8
15 14.09 ЮЗ 2 20 км 6/6 600 м
[Sc]
+21.3 +3.5 31 +21 +21 комфорт 1017.5 1010.1 +28.6
18 14.09 ЮВ 2 н/о 9/9 600 м
[Sc]
+17.0 +1.4 35 +17 +17 1017.5 1010.0 +28.6
21 14.09 ЮВ 2 н/о 9/9 600 м
[Sc]
+15.4 +2.0 40 +15 +15 1016.9 1009.4
00 15.09 ЮВ 2 н/о 9/9 600 м
[Sc]
+15.3 +2.5 42 +15 +15 1016.4 1008.9
03 15.09 ЮВ 2 20 км 9/9 600 м
[Cb calv]
+15.1 +2.5 43 +15 +15 1016.1 1008.6
06 15.09 Ю 2 20 км 9/9 600 м
[Cb calv]
+21.2 +1.7 27 +21 +22 комфорт 1016.0 1008.6 +14.5
09 15.09 Ю 5 20 км 10/5 600 м
[Cb calv Ac trans Ci]
+24.5 +0.1 20 +23 +24 комфорт 1015.0 1007.7
12 15.09 ЮЗ 7
{15}
20 км {метель} 10/6 600 м
[Cb calv Ac trans Ci]
+23.9 +1.9 24 +23 +23 комфорт 1013.2 1005.9
15 15.09 СЗ 5 20 км 10/10 600 м
[Cb calv]
+18.2 +8.7 54 +18 +18 1013.7 1006.3 +27.6
18 15.09 З 5 н/о слаб. ливневой дождь 10/10 600 м
[Cb calv]
+12.4 +8.8 79 +10 +10 1016.0 1008.4 +27.6
21 15.09 З 6 н/о {ливн. осадки} 6/6 600 м
[Cb calv]
+10.1 +7.4 83 +7 +7 1013.9 1006.3
00 16.09 З 2 н/о дымка {ливн. осадки} ясно +8.2 +7.6 96 +6 +6 1014.0 1006.3
03 16.09 ЮЗ 1 200 м туман ?/? +8.4 +8.4 100 +7 +7 1014.9 1007.2
06 16.09 З 2 20 км {туман} 10/6 600 м
[Sc Cs]
+11.8 +7.5 75 +11 +13 1015.0 1007.4 +7.5 3
09 16.09 З 5 20 км 10/4 600 м
[Sc Cs]
+16.5 +4.0 43 +16 +18 1014.1 1006.6
12 16.09 З 5 20 км 10/3 600 м
[Sc Ac trans Cs]
+17.1 +1.9 36 +16 +17 1012.5 1005.1
15 16.09 Ю 3 20 км 10/6 600 м
[Sc Ci]
+15.1 +4.6 49 +15 +15 1010.9 1003.4 +17.5
18 16.09 Ю 4 н/о 10/0
[Ac trans Ci]
+12.3 +5.2 62 +11 +11 1009.8 1002.3 +17.5
21 16.09 Ю 6 н/о 10/9 600 м
[Sc Ci]
+13.5 +4.1 53 +12 +12 1008.0 1000.5
00 17.09 Ю 6 н/о 10/10 600 м
[Sc]
+13.7 +3.8 51 +12 +12 1007.2 999.7
03 17.09 Ю 4 20 км 10/9 600 м
[Cb calv Ci]
+12.7 +4.6 58 +11 +11 1007.7 1000.2
06 17.09 Ю 5 20 км 10/9 600 м
[Cb calv Ac trans Ci]
+17.3 +5.0 44 +17 +17 1007.3 999.9 +10.9
09 17.09 ЮЗ 6 20 км 10/10 600 м
[Sc]
+21.1 +2.3 29 +21 +21 комфорт 1006.6 999.3
12 17.09 З 4 20 км 10/8 600 м
[Sc Ac trans Ci]
+23.0 +3.1 27 +23 +23 комфорт 1004.9 997.7
15 17.09 С 2 20 км 10/8 600 м
[Sc Ac trans Ci]
+18.5 +6.7 46 +19 +19 1004.2 996.9 +24.1
18 17.09 С 1 н/о 10/4 600 м
[Sc Ac trans Ci]
+15.2 +7.3 59 +16 +16 1004.6 997.2 +24.1
21 17.09 штиль 0 н/о 10/8 600 м
[Sc Ci]
+13.8 +8.0 68 +14 +14 1004.2 996.7
00 18.09 штиль 0 н/о 10/10 600 м
[Cb calv]
+12.7 +8.3 75 +12 +12 1004.1 996.6
03 18.09 СЗ 1 10 км слаб. ливневой дождь 10/10 600 м
[Cb calv]
+12.0 +9.2 83 +12 +12 1004.7 997.2
06 18.09 Ю 2 20 км {ливн. осадки} 10/6 600 м
[Cb calv Ac trans Ci]
+14.8 +11.3 80 +14 +16 1005.3 997.9 +11.8 0.1
09 18.09 ЮЗ 5 20 км 10/5 600 м
[Cu med, cong Ac trans Ci]
+20.5 +11.7 57 +22 +23 комфорт 1005.2 997.9
12 18.09 З 6 20 км 10/4 600 м
[Cb calv Ci]
+21.9 +1.4 26 +22 +22 комфорт 1005.0 997.7
15 18.09 ЮЗ 5 20 км 6/0
[Ci]
+16.9 +4.4 43 +16 +16 1006.0 998.6 +22.9
18 18.09 ЮВ 3 н/о 3/0
[Ci fib]
+10.9 +4.5 65 +9 +9 1004.8 997.3 +22.9 0.6
00 19.09 ЮЗ 9
{17}
н/о слаб. ливневой дождь 10/10 600 м
[Cb calv]
+16.4 +13.8 85 +15 +15 998.5 991.2

 

Местоположение метеостанции Аксай (Западно-Казахстанская область, Казахстан): широта 51.18 долгота 53.00 высота над уровнем моря 63 м.

В архиве по умолчанию представлена погода в Аксае за последнюю неделю. Архивные данные за месяц целиком и за предыдущие месяцы, начиная с января 2011 года, Вы можете получить, выбрав интересующий диапазон дат из раскрывающегося списка и нажав кнопку "Ввод!".


*Определитесь, кто Вы:
робот инопланетянин человек

Внимание! Время в таблицах - всемирное. Для получения местного времени необходимо прибавить поправку, которая равна 4 ч.

Смотрите также архив погоды в соседних городах и на ближайших метеорологических станциях:

Погода в Илеке (Оренбургская область, Россия) (46 км)
Погода в Чингирлау (Западно-Казахстанская область, Казахстан) (78 км)
Погода в Анкаты (Западно-Казахстанская область, Казахстан) (80 км)
Погода в Джамбейты (Западно-Казахстанская область, Казахстан) (108 км)
Погода в Новосергиевке (Оренбургская область, Россия) (109 км)
Погода в Уральске (Западно-Казахстанская область, Казахстан) (120 км)
Погода в Первомайском (Оренбургская область, Россия) (123 км)
Погода в Январцево (Западно-Казахстанская область, Казахстан) (125 км)
Погода в Сорочинске (Оренбургская область, Россия) (139 км)
Погода в Соль-Илецк (Оренбургская область, Россия) (141 км)

Пояснения к столбцам:

Ветер - указаны скорость ветра в м/с - средняя за 10 мин, порывы в срок и между сроками (в фигурных скобках) и направление, откуда дует ветер: С - северный, СВ - северо-восточный, В - восточный, ЮВ - юго-восточный, Ю - южный, ЮЗ - юго-западный, З - западный, СЗ - северо-западный.
Видимость - горизонтальная дальность видимости в метрах или километрах. При видимости от 1 до 10 км при отсутствии осадков обычно наблюдается дымка, при ухудшении видимости до 1 км и менее - туман. В сухую погоду видимость может ухудшаться дымом, пылью или мглою.
Явления - указаны атмосферные явления, наблюдавшиеся в срок или в последний час перед сроком; фигурными скобками обозначены явления, наблюдавшиеся между сроками (за 1-3 часа до срока); квадратными скобками обозначены град или гололедные отложения с указанием их диаметра в мм.
Облачность - указаны через наклонную черту общая и нижняя облачность в баллах и высота нижней границы облаков в метрах; квадратными скобками обозначены формы облаков: Ci - перистые, Cs - перисто-слоистые, Cc - перисто-кучевые, Ac - высококучевые, As - высокослоистые, Sc - слоисто-кучевые, Ns - слоисто-дождевые, Cu - кучевые, Cb - кучево-дождевые. Подробнее классификацию облаков см. в Атласе облаков (PDF).
T - Температура воздуха - температура, измеренная на высоте 2 м над землей.
Td - Температура точки росы - температура, при понижении до которой содержащийся в воздухе водяной пар достигнет насыщения.
f - Относительная влажность воздуха - влажноcть воздуха, измеренная на высоте 2 м над землей.
Te - Эффективная температура - температура, которую ощущает одетый по сезону человек в тени. Характеристика душности погоды. При расчете учитывается влияние влажности воздуха и скорости ветра на теплоощущения человека.
Tes - Эффективная температура на солнце - температура, которую ощущает человек, с поправкой на солнечный нагрев. Характеристика знойности погоды. Зависит от высоты солнца над горизонтом, облачности и скорости ветра. Ночью, в пасмурную погоду, а также при ветре 12 м/с и более поправка равна нулю.
P - Атмосферное давление - приведенное к уровню моря атмосферное давление.
Po - Атмосферное давление - измеренное на уровне метеостанции атмосферное давление.
Tmin - Минимальная температура - минимум температуры воздуха на высоте 2 м над землей.
Tmax - Максимальная температура - максимум температуры воздуха на высоте 2 м над землей.
R - Количество осадков - Количество выпавших осадков за период времени, мм. При наведении курсора мыши на число - период времени, за который выпало указанное количество осадков.
R24 - Количество осадков - Количество выпавших осадков за 24 часа, мм.
S - Снежный покров - Высота снежного покрова, см. При наведении курсора мыши на число - состояние снежного покрова и степень покрытия местности в баллах.